User: anonymous   Login
Location: Columbia
(38.9520°N, 92.3340°W)
Time: 07:14:04
(UTC-05:00)
Language:

Cosmos 1633 - Orbit

View from above orbital plane
View from above orbital plane
View from above satellite
View from above satellite

Ground track
Ground track

The orbit data is extracted from the following two-line orbital elements,

1 15592U 85020A   15148.11072491  .00003528  00000-0  14473-3 0  9991
2 15592 082.5391 349.6383 0014186 308.9921 146.8991 15.23829696649716
Epoch (UTC): 28 May 2015 02:39:26
Eccentricity: 0.0014186
inclination: 82.5391°
perigee height: 484 km
apogee height: 504 km
right ascension of ascending node: 349.6383°
argument of perigee: 308.9921°
revolutions per day: 15.23829696
mean anomaly at epoch: 146.8991°
orbit number at epoch: 64971

The dashed part of the orbit path shows where the satellite is in the earth's shadow,  

DLR